Total_Precipitation_Accumulation
0.04 0.02 0.01 0.05 0.05 0.04 0.06 0.12 0.10 0.15 0.15 0.12 0.05 0.01 0.00 0.00 0.00 0.00 0.00 0.00 0.00 0.00 0.00 0.00 0.00 0.00 0.00 0.00 0.00 0.02 0.07 0.09 0.10 0.06 0.05 0.11 0.22 0.56 0.50 0.61 0.58 0.64 0.68 0.54
0.00 0.00 0.00 0.00 0.01 0.02 0.04 0.04 0.04 0.02 0.07 0.04 0.02 0.01 0.00 0.00 0.01 0.01 0.02 0.00 0.00 0.00 0.00 0.00 0.00 0.00 0.00 0.00 0.00 0.00 0.02 0.05 0.06 0.08 0.06 0.08 0.08 0.20 0.27 0.38 0.43 0.45 0.59 0.59
0.00 0.00 0.00 0.01 0.02 0.01 0.04 0.04 0.02 0.03 0.02 0.00 0.01 0.02 0.01 0.00 0.00 0.01 0.02 0.03 0.01 0.00 0.00 0.00 0.00 0.00 0.00 0.00 0.00 0.00 0.02 0.04 0.05 0.10 0.09 0.06 0.10 0.12 0.14 0.16 0.33 0.43 0.52 0.49
0.02 0.03 0.01 0.04 0.01 0.00 0.01 0.01 0.01 0.00 0.00 0.00 0.00 0.00 0.01 0.01 0.01 0.01 0.01 0.02 0.04 0.01 0.00 0.00 0.00 0.00 0.00 0.00 0.00 0.00 0.00 0.01 0.03 0.03 0.06 0.07 0.05 0.06 0.05 0.07 0.15 0.30 0.37 0.38
0.08 0.03 0.03 0.01 0.00 0.01 0.02 0.01 0.00 0.00 0.00 0.00 0.00 0.00 0.00 0.01 0.01 0.01 0.01 0.01 0.02 0.03 0.01 0.00 0.00 0.00 0.00 0.00 0.00 0.00 0.00 0.01 0.00 0.01 0.02 0.07 0.10 0.08 0.06 0.05 0.10 0.27 0.30 0.23
0.00 0.00 0.02 0.06 0.00 0.00 0.00 0.01 0.00 0.00 0.01 0.01 0.01 0.02 0.00 0.00 0.00 0.00 0.00 0.01 0.01 0.01 0.02 0.01 0.00 0.00 0.00 0.00 0.00 0.00 0.00 0.01 0.01 0.01 0.02 0.04 0.09 0.07 0.09 0.13 0.16 0.18 0.22 0.27
0.00 0.00 0.04 0.05 0.00 0.00 0.00 0.00 0.00 0.01 0.02 0.03 0.05 0.04 0.01 0.00 0.00 0.00 0.00 0.00 0.00 0.01 0.01 0.01 0.01 0.00 0.00 0.00 0.00 0.00 0.00 0.00 0.00 0.01 0.02 0.02 0.04 0.10 0.12 0.11 0.16 0.14 0.13 0.19
0.00 0.01 0.03 0.02 0.03 0.08 0.09 0.04 0.02 0.03 0.01 0.05 0.02 0.01 0.00 0.00 0.00 0.00 0.00 0.00 0.00 0.00 0.01 0.01 0.02 0.01 0.00 0.00 0.00 0.00 0.00 0.00 0.00 0.00 0.00 0.00 0.01 0.02 0.07 0.10 0.08 0.11 0.13 0.09
0.03 0.06 0.08 0.07 0.14 0.12 0.14 0.12 0.06 0.11 0.05 0.10 0.08 0.05 0.03 0.02 0.01 0.01 0.01 0.01 0.01 0.01 0.01 0.01 0.02 0.02 0.00 0.00 0.00 0.00 0.00 0.01 0.01 0.01 0.00 0.00 0.00 0.01 0.01 0.02 0.05 0.04 0.04 0.05
0.03 0.03 0.01 0.03 0.05 0.06 0.09 0.16 0.16 0.18 0.16 0.13 0.13 0.07 0.05 0.04 0.04 0.03 0.05 0.06 0.04 0.03 0.03 0.03 0.02 0.02 0.02 0.01 0.00 0.00 0.00 0.01 0.01 0.00 0.00 0.00 0.00 0.00 0.01 0.02 0.04 0.03 0.01 0.01
0.01 0.02 0.01 0.00 0.03 0.08 0.06 0.05 0.06 0.10 0.17 0.22 0.16 0.12 0.14 0.13 0.14 0.17 0.18 0.19 0.16 0.12 0.09 0.07 0.04 0.02 0.02 0.03 0.02 0.01 0.00 0.00 0.00 0.00 0.00 0.00 0.00 0.01 0.02 0.03 0.06 0.03 0.00 0.00
0.02 0.05 0.09 0.03 0.06 0.08 0.08 0.08 0.13 0.15 0.14 0.17 0.25 0.23 0.15 0.12 0.16 0.22 0.24 0.26 0.21 0.18 0.16 0.16 0.14 0.09 0.07 0.06 0.05 0.03 0.01 0.00 0.01 0.00 0.00 0.00 0.00 0.01 0.03 0.05 0.06 0.07 0.05 0.01
0.03 0.02 0.05 0.05 0.04 0.04 0.07 0.09 0.14 0.14 0.19 0.19 0.22 0.25 0.21 0.22 0.25 0.24 0.33 0.40 0.38 0.35 0.30 0.27 0.25 0.20 0.16 0.14 0.11 0.09 0.07 0.03 0.01 0.00 0.00 0.00 0.00 0.00 0.00 0.02 0.02 0.03 0.03 0.03
0.00 0.00 0.00 0.00 0.01 0.01 0.04 0.08 0.11 0.09 0.11 0.15 0.18 0.19 0.24 0.26 0.27 0.30 0.43 0.52 0.50 0.45 0.42 0.40 0.36 0.34 0.32 0.29 0.26 0.22 0.19 0.17 0.06 0.01 0.01 0.01 0.00 0.00 0.00 0.00 0.00 0.01 0.02 0.02
0.00 0.00 0.00 0.00 0.00 0.00 0.00 0.01 0.01 0.03 0.04 0.05 0.08 0.12 0.15 0.20 0.24 0.34 0.42 0.47 0.51 0.44 0.43 0.37 0.34 0.43 0.46 0.38 0.37 0.41 0.33 0.29 0.21 0.11 0.05 0.02 0.01 0.00 0.00 0.00 0.00 0.00 0.00 0.01
0.00 0.00 0.00 0.00 0.00 0.00 0.00 0.00 0.01 0.01 0.02 0.04 0.03 0.05 0.13 0.20 0.23 0.25 0.25 0.32 0.43 0.52 0.46 0.37 0.28 0.34 0.40 0.43 0.37 0.31 0.35 0.36 0.30 0.21 0.12 0.07 0.04 0.02 0.01 0.00 0.00 0.00 0.00 0.00
0.00 0.00 0.00 0.00 0.00 0.00 0.00 0.00 0.00 0.00 0.00 0.01 0.01 0.01 0.02 0.06 0.11 0.15 0.17 0.18 0.23 0.40 0.43 0.35 0.30 0.21 0.22 0.25 0.33 0.36 0.28 0.26 0.26 0.23 0.16 0.11 0.08 0.06 0.04 0.01 0.00 0.00 0.00 0.00
0.00 0.00 0.00 0.00 0.00 0.00 0.00 0.00 0.00 0.00 0.00 0.00 0.00 0.00 0.01 0.01 0.02 0.05 0.09 0.12 0.12 0.13 0.21 0.28 0.27 0.16 0.16 0.15 0.15 0.20 0.23 0.22 0.19 0.16 0.13 0.10 0.07 0.05 0.04 0.03 0.01 0.00 0.00 0.00
0.00 0.00 0.00 0.00 0.00 0.00 0.00 0.00 0.00 0.00 0.00 0.00 0.00 0.00 0.00 0.00 0.00 0.00 0.01 0.02 0.06 0.09 0.10 0.16 0.15 0.13 0.11 0.13 0.09 0.10 0.12 0.12 0.11 0.09 0.06 0.05 0.03 0.02 0.01 0.01 0.00 0.00 0.00 0.00
0.00 0.00 0.00 0.00 0.00 0.00 0.00 0.00 0.00 0.00 0.00 0.00 0.00 0.00 0.00 0.00 0.00 0.00 0.00 0.00 0.01 0.06 0.02 0.05 0.10 0.09 0.08 0.07 0.08 0.05 0.06 0.07 0.07 0.05 0.03 0.02 0.01 0.02 0.01 0.00 0.00 0.00 0.00 0.00
0.00 0.00 0.00 0.00 0.00 0.00 0.00 0.00 0.00 0.00 0.00 0.00 0.00 0.00 0.00 0.00 0.00 0.00 0.00 0.00 0.00 0.02 0.00 0.00 0.04 0.06 0.03 0.04 0.05 0.06 0.03 0.03 0.04 0.04 0.03 0.02 0.01 0.00 0.00 0.00 0.00 0.00 0.00 0.00
0.00 0.00 0.00 0.00 0.00 0.00 0.00 0.00 0.00 0.00 0.00 0.00 0.00 0.00 0.00 0.00 0.00 0.00 0.00 0.00 0.00 0.02 0.01 0.00 0.04 0.10 0.00 0.00 0.01 0.03 0.05 0.03 0.02 0.01 0.01 0.01 0.01 0.00 0.00 0.00 0.00 0.00 0.00 0.00
0.00 0.00 0.00 0.00 0.01 0.00 0.00 0.00 0.00 0.00 0.00 0.00 0.00 0.00 0.00 0.00 0.01 0.01 0.00 0.00 0.00 0.01 0.01 0.00 0.02 0.13 0.00 0.00 0.00 0.00 0.01 0.02 0.03 0.02 0.01 0.01 0.01 0.01 0.00 0.00 0.00 0.00 0.00 0.00
0.00 0.00 0.00 0.01 0.01 0.01 0.01 0.00 0.00 0.00 0.00 0.00 0.00 0.00 0.00 0.00 0.00 0.00 0.00 0.00 0.00 0.01 0.00 0.00 0.01 0.07 0.01 0.00 0.00 0.00 0.00 0.00 0.00 0.01 0.01 0.01 0.01 0.01 0.00 0.00 0.00 0.00 0.00 0.00
0.00 0.01 0.01 0.01 0.01 0.00 0.00 0.00 0.00 0.00 0.00 0.00 0.00 0.00 0.00 0.00 0.00 0.00 0.00 0.00 0.00 0.00 0.00 0.00 0.01 0.01 0.00 0.00 0.00 0.00 0.00 0.00 0.00 0.00 0.00 0.00 0.00 0.00 0.00 0.00 0.00 0.00 0.00 0.00
0.01 0.02 0.01 0.01 0.01 0.01 0.00 0.00 0.00 0.00 0.00 0.00 0.00 0.00 0.00 0.00 0.00 0.00 0.00 0.00 0.00 0.00 0.00 0.00 0.00 0.01 0.00 0.00 0.00 0.00 0.00 0.00 0.00 0.00 0.00 0.00 0.00 0.00 0.00 0.00 0.00 0.00 0.00 0.00
0.01 0.01 0.02 0.01 0.00 0.00 0.00 0.01 0.03 0.01 0.00 0.00 0.00 0.00 0.00 0.00 0.00 0.00 0.00 0.00 0.00 0.00 0.00 0.00 0.00 0.00 0.00 0.00 0.00 0.00 0.00 0.00 0.00 0.00 0.00 0.00 0.00 0.00 0.00 0.00 0.00 0.00 0.00 0.00